PBO Station Position Time Series. Reference Frame : NAM14
Format Version,1.1.1
4-character ID,P326
Station name,ShowersMtnCN2006
Begin Date, 2006-05-19
End Date, 2023-06-26
Release Date, 2023-06-27
Reference position, 40.5753140172 North Latitude, -123.6989309252 East Longitude, 1261.68968 meters elevation,
Date, North (mm), East (mm), Vertical (mm), North Std. Deviation (mm), East Std. Deviation (mm),              Vertical Std. Deviation (mm), Quality,
2006-05-19,0.00, 0.00, 0.00, 2.16, 1.60, 7.45, repro,
2006-05-20,0.29, -0.85, -2.54, 2.19, 1.62, 7.55, repro,
2006-05-21,-0.62, -2.22, 1.28, 2.19, 1.63, 7.65, repro,
2006-05-22,-0.77, -0.92, 7.64, 2.17, 1.66, 7.62, repro,
2006-05-23,3.92, -0.64, 5.03, 2.16, 1.62, 7.46, repro,
2006-05-24,-0.30, 1.33, -6.63, 2.15, 1.61, 7.44, repro,
2006-05-25,0.47, 0.61, 0.19, 2.30, 1.69, 7.95, repro,
2006-05-26,-0.14, 0.02, -4.31, 2.29, 1.73, 7.94, repro,
2006-05-27,-2.70, 0.54, 4.19, 2.16, 1.60, 7.43, repro,
2006-05-28,-0.99, 0.54, 0.11, 2.14, 1.62, 7.48, repro,
2006-05-29,1.28, -0.79, -0.09, 2.17, 1.61, 7.45, repro,
2006-05-30,-0.17, -0.30, -0.43, 2.23, 1.66, 7.76, repro,
2006-05-31,0.17, -2.05, -2.23, 2.25, 1.71, 7.88, repro,
2006-06-01,-1.30, -0.58, 0.60, 2.24, 1.70, 7.82, repro,
2006-06-02,-0.32, 0.63, 5.43, 2.26, 1.68, 7.91, repro,
2006-06-03,-0.77, -0.82, 5.84, 2.27, 1.69, 7.96, repro,
2006-06-04,0.15, -0.69, -5.36, 2.26, 1.65, 7.80, repro,
2006-06-05,-0.30, -1.76, 4.62, 2.26, 1.66, 7.89, repro,
2006-06-06,-2.42, -1.71, 10.28, 2.25, 1.66, 7.86, repro,
2006-06-07,-2.40, -1.93, 5.96, 2.24, 1.66, 7.82, repro,
2006-06-08,-0.90, -1.30, 3.70, 2.15, 1.63, 7.55, repro,
2006-06-09,-1.38, -0.24, -1.43, 2.17, 1.61, 7.45, repro,
2006-06-10,-0.58, -1.33, 5.96, 2.17, 1.62, 7.56, repro,
2006-06-11,-2.05, 0.00, 7.02, 2.20, 1.65, 7.70, repro,
2006-06-12,-1.78, -0.77, 2.08, 2.21, 1.67, 7.81, repro,
2006-06-13,-2.45, -0.76, 8.54, 2.23, 1.64, 7.67, repro,
2006-06-14,-1.30, -1.68, 3.55, 2.23, 1.67, 7.76, repro,
2006-06-15,-1.14, -0.12, 0.39, 2.15, 1.62, 7.46, repro,
2006-06-16,-0.56, -0.00, 2.10, 2.14, 1.61, 7.47, repro,
2006-06-17,-1.42, -0.09, 8.13, 2.19, 1.68, 7.65, repro,
2006-06-18,-1.88, -0.51, 11.93, 2.20, 1.65, 7.76, repro,
2006-06-19,-0.62, -1.08, 1.89, 2.33, 1.80, 8.25, repro,
2006-06-20,-1.15, -1.23, 4.52, 2.18, 1.67, 7.78, repro,
2006-06-21,-0.15, 0.11, 7.89, 2.17, 1.66, 7.69, repro,
2006-06-22,-2.23, -0.91, 6.39, 2.18, 1.67, 7.79, repro,
2006-06-23,-1.22, -1.29, 0.31, 2.26, 1.74, 7.96, repro,
2006-06-24,0.16, -1.13, 9.72, 2.21, 1.68, 7.85, repro,
2006-06-25,-1.50, -1.77, 1.65, 2.26, 1.75, 7.99, repro,
2006-06-26,-0.90, 0.82, -0.00, 2.16, 1.66, 7.65, repro,
2006-06-27,-2.17, -1.33, 10.40, 2.23, 1.73, 7.87, repro,
2006-06-28,-2.94, -2.29, 4.65, 2.22, 1.73, 7.84, repro,
2006-06-29,-3.10, -1.95, 14.91, 2.12, 1.63, 7.59, repro,
2006-06-30,-0.94, -1.65, 7.38, 2.14, 1.64, 7.61, repro,
2006-07-01,-1.16, -2.36, 7.94, 2.12, 1.62, 7.54, repro,
2006-07-02,-2.40, -0.64, 2.79, 2.16, 1.67, 7.72, repro,
2006-07-03,-0.23, -0.60, 3.10, 2.14, 1.62, 7.63, repro,
2006-07-04,-2.14, -2.10, 11.63, 2.14, 1.61, 7.58, repro,
2006-07-05,-0.43, -1.06, 0.07, 2.21, 1.70, 7.83, repro,
2006-07-06,-0.31, -0.56, -6.52, 2.19, 1.71, 7.79, repro,
2006-07-07,-1.08, -0.77, -1.99, 2.15, 1.64, 7.64, repro,
2006-07-08,-0.58, -1.11, 1.24, 2.19, 1.67, 7.85, repro,
2006-07-09,-0.74, -0.89, 5.26, 2.21, 1.65, 7.82, repro,
2006-07-10,-2.06, -1.95, 4.84, 2.15, 1.64, 7.72, repro,
2006-07-11,0.30, -1.73, 7.91, 2.30, 1.80, 8.42, repro,
2006-07-12,0.02, -0.35, 0.78, 2.20, 1.70, 7.81, repro,
2006-07-13,-2.13, 0.36, 2.07, 2.16, 1.62, 7.69, repro,
2006-07-14,-0.14, 0.33, 4.34, 2.14, 1.62, 7.62, repro,
2006-07-15,-0.66, -1.56, 9.88, 2.13, 1.61, 7.60, repro,
2006-07-16,-0.40, -1.03, 8.59, 2.13, 1.63, 7.64, repro,
2006-07-17,-0.95, -1.45, 4.75, 2.17, 1.68, 7.93, repro,
2006-07-18,-1.38, -0.22, 8.83, 2.09, 1.58, 7.35, repro,
2006-07-19,-1.14, -0.33, -1.07, 2.08, 1.58, 7.35, repro,
2006-07-20,-0.81, -0.44, 10.41, 2.07, 1.58, 7.32, repro,
2006-07-21,0.43, -0.97, 7.56, 2.09, 1.58, 7.37, repro,
2006-07-22,-0.98, -1.80, 11.16, 2.15, 1.66, 7.61, repro,
2006-07-23,-1.37, -0.19, 9.34, 2.08, 1.59, 7.35, repro,
2006-07-24,0.31, -1.25, -0.03, 2.20, 1.68, 7.82, repro,
2006-07-25,-2.34, -0.32, 13.50, 2.18, 1.69, 7.73, repro,
2006-07-26,-0.30, -1.31, 7.26, 2.08, 1.59, 7.40, repro,
2006-07-27,0.10, -1.79, 7.62, 2.07, 1.59, 7.36, repro,
2006-07-28,-1.35, -0.67, 11.09, 2.12, 1.64, 7.52, repro,
2006-07-29,0.64, -0.19, 2.83, 2.13, 1.62, 7.50, repro,
2006-07-30,-0.56, -2.17, 10.17, 2.12, 1.65, 7.60, repro,
2006-07-31,0.21, -0.31, 5.49, 2.07, 1.59, 7.37, repro,
2006-08-01,-0.22, -2.11, 13.06, 2.10, 1.61, 7.53, repro,
2006-08-02,-0.47, -0.83, 7.15, 2.11, 1.63, 7.63, repro,
2006-08-03,-0.34, -0.83, 8.84, 2.17, 1.67, 7.75, repro,
2006-08-04,-0.02, -0.75, 8.65, 2.19, 1.67, 7.80, repro,
2006-08-05,-0.91, -0.40, 9.74, 2.16, 1.70, 7.86, repro,
2006-08-06,-0.48, -0.73, 10.47, 2.15, 1.66, 7.90, repro,
2006-08-07,-1.75, -1.31, 14.27, 2.11, 1.65, 7.71, repro,
2006-08-08,-0.68, -0.48, 7.28, 2.08, 1.59, 7.34, repro,
2006-08-09,-0.30, 1.02, 6.13, 2.09, 1.59, 7.39, repro,
2006-08-10,-2.09, -0.08, 10.64, 2.11, 1.61, 7.58, repro,
2006-08-11,-1.48, 1.31, 9.04, 2.08, 1.59, 7.38, repro,
2006-08-12,-1.41, 0.21, 15.63, 2.08, 1.60, 7.42, repro,
2006-08-13,-1.40, -0.72, 15.42, 2.08, 1.60, 7.41, repro,
2006-08-14,-1.67, -0.44, 9.57, 2.12, 1.63, 7.43, repro,
2006-08-15,-2.02, -0.84, 12.47, 2.17, 1.62, 7.64, repro,
2006-08-16,0.45, 0.42, 7.53, 2.10, 1.60, 7.45, repro,
2006-08-17,-2.06, -1.29, 12.14, 2.09, 1.62, 7.54, repro,
2006-08-18,-1.35, 0.46, 6.65, 2.15, 1.68, 7.66, repro,
2006-08-19,0.41, -0.11, 6.41, 2.17, 1.69, 7.61, repro,
2006-08-20,-1.00, -0.38, 12.95, 2.08, 1.59, 7.42, repro,
2006-08-21,-0.13, 0.38, 13.64, 2.12, 1.64, 7.65, repro,
2006-08-22,-0.43, -0.28, 11.65, 2.08, 1.62, 7.49, repro,
2006-08-23,-1.66, 1.40, 15.12, 2.08, 1.63, 7.50, repro,
2006-08-24,-1.11, 0.44, 13.61, 2.15, 1.69, 7.67, repro,
2006-08-25,-1.94, 0.66, 19.68, 2.12, 1.65, 7.70, repro,
2006-08-26,-1.18, -0.29, 22.10, 2.16, 1.70, 8.00, repro,
2006-08-27,-0.64, -0.19, 12.62, 2.15, 1.71, 7.95, repro,
2006-08-28,-0.66, -0.25, 11.08, 2.14, 1.72, 7.97, repro,
2006-08-29,0.08, 0.62, 9.26, 2.21, 1.78, 8.08, repro,
2006-08-30,0.00, -0.04, 10.07, 2.15, 1.69, 7.75, repro,
2006-08-31,-1.39, -0.11, 13.90, 2.23, 1.77, 8.14, repro,
2006-09-01,0.34, -0.12, 14.63, 2.22, 1.74, 8.14, repro,
2006-09-02,-0.54, -0.60, 6.36, 2.13, 1.70, 7.81, repro,
2006-09-03,-1.31, -0.46, 11.69, 2.14, 1.72, 7.91, repro,
2006-09-04,-0.16, -0.65, 8.99, 2.25, 1.75, 8.15, repro,
2006-09-05,-0.21, -0.02, 9.03, 2.25, 1.73, 8.08, repro,
2006-09-06,0.24, -0.53, 12.39, 2.18, 1.72, 8.00, repro,
2006-09-07,-0.94, -0.93, 26.35, 2.28, 1.81, 8.62, repro,
2006-09-08,-1.89, -0.24, 18.61, 2.26, 1.81, 8.53, repro,
2006-09-09,-2.03, 0.04, 13.65, 2.13, 1.68, 7.74, repro,
2006-09-10,0.73, -0.47, 13.89, 2.12, 1.66, 7.59, repro,
2006-09-11,-0.27, -0.94, 18.38, 2.14, 1.67, 7.73, repro,
2006-09-12,-0.18, -0.77, 14.25, 2.15, 1.68, 7.78, repro,
2006-09-13,-0.26, -0.38, 18.86, 2.14, 1.68, 7.70, repro,
2006-09-14,-1.37, -1.47, 21.31, 2.21, 1.77, 7.99, repro,
2006-09-15,0.05, -1.32, 11.22, 2.16, 1.63, 7.50, repro,
2006-09-16,-0.55, 0.77, 17.82, 2.12, 1.62, 7.56, repro,
2006-09-17,-1.19, 0.65, 19.23, 2.11, 1.64, 7.63, repro,
2006-09-18,-0.03, -0.65, 18.05, 2.10, 1.63, 7.51, repro,
2006-09-19,-0.20, 0.52, 13.05, 2.08, 1.62, 7.45, repro,
2006-09-20,-1.58, -1.56, 19.01, 2.14, 1.69, 7.62, repro,
2006-09-21,-1.03, -0.32, 23.40, 2.15, 1.68, 7.75, repro,
2006-09-22,-3.29, -3.17, 20.68, 2.21, 1.73, 7.98, repro,
2006-09-23,-0.83, -2.19, 21.64, 2.16, 1.67, 7.70, repro,
2006-09-24,0.67, 0.18, 14.80, 2.22, 1.69, 7.75, repro,
2006-09-25,-0.66, 0.04, 17.91, 2.20, 1.69, 7.83, repro,
2006-09-26,-0.29, -0.10, 15.74, 2.18, 1.65, 7.62, repro,
2006-09-27,0.48, -0.77, 10.66, 2.20, 1.68, 7.77, repro,
2006-09-28,-1.23, -1.06, 13.76, 2.17, 1.67, 7.67, repro,
2006-09-29,0.50, -0.50, 22.79, 2.25, 1.75, 7.87, repro,
2006-09-30,-0.16, -1.27, 25.23, 2.17, 1.70, 7.88, repro,
2006-10-01,0.02, -0.60, 19.04, 2.11, 1.64, 7.55, repro,
2006-10-02,-0.40, -0.80, 9.27, 2.18, 1.70, 7.70, repro,
2006-10-03,-0.16, -1.79, 5.92, 2.21, 1.75, 7.97, repro,
2006-10-04,-0.26, -0.45, 20.97, 2.12, 1.65, 7.57, repro,
2006-10-05,-0.74, -0.87, 16.02, 2.13, 1.64, 7.60, repro,
2006-10-06,-0.22, -0.52, 14.01, 2.10, 1.64, 7.53, repro,
2006-10-07,0.29, -1.44, 10.20, 2.23, 1.73, 8.07, repro,
2006-10-08,-1.52, -1.39, 16.58, 2.16, 1.68, 7.73, repro,
2006-10-09,0.46, -1.18, 9.84, 2.17, 1.70, 7.83, repro,
2006-10-10,-2.35, -1.43, 9.66, 2.18, 1.69, 7.90, repro,
2006-10-11,-1.02, -1.32, 15.13, 2.15, 1.69, 7.86, repro,
2006-10-12,-1.42, -1.04, 19.52, 2.11, 1.64, 7.54, repro,
2006-10-13,-1.18, -1.47, 18.62, 2.09, 1.63, 7.50, repro,
2006-10-14,-0.18, -0.66, 18.54, 2.13, 1.67, 7.75, repro,
2006-10-15,-0.23, -0.32, 26.80, 2.16, 1.68, 7.84, repro,
2006-10-16,-0.38, -1.65, 22.64, 2.10, 1.64, 7.62, repro,
2006-10-17,-1.00, -0.94, 22.93, 2.14, 1.70, 8.01, repro,
2006-10-18,-0.48, -0.73, 21.62, 2.09, 1.65, 7.55, repro,
2006-10-19,-0.46, -0.91, 17.78, 2.31, 1.72, 8.27, repro,
2006-10-20,-0.88, -0.99, 20.99, 2.43, 1.89, 9.22, repro,
2006-10-21,-1.39, -0.33, 10.66, 2.28, 1.75, 8.27, repro,
2006-10-22,-1.24, 0.63, 15.01, 2.13, 1.70, 7.81, repro,
2006-10-23,0.67, 1.36, 13.68, 2.08, 1.66, 7.55, repro,
2006-10-24,-1.62, -0.27, 15.37, 2.33, 1.75, 8.44, repro,
2006-10-25,-1.34, -0.14, 16.75, 2.19, 1.71, 7.89, repro,
2006-10-26,-0.44, -0.06, 16.10, 2.13, 1.69, 7.78, repro,
2006-10-27,0.60, 0.56, 9.24, 2.15, 1.73, 7.88, repro,
2006-10-28,-0.93, 0.96, 8.27, 2.15, 1.65, 7.81, repro,
2006-10-29,-1.16, 0.30, 15.33, 2.11, 1.68, 7.76, repro,
2006-10-30,-1.58, -0.70, 18.46, 2.07, 1.61, 7.51, repro,
2006-10-31,-0.89, 0.08, 19.00, 2.12, 1.68, 7.77, repro,
2006-11-01,0.84, -1.24, 9.37, 2.13, 1.69, 7.85, repro,
2006-11-02,0.82, -1.75, 19.34, 2.10, 1.67, 7.73, repro,
2006-11-03,-1.30, 1.83, 7.78, 2.13, 1.74, 7.87, repro,
2006-11-04,-1.47, -0.38, 10.14, 2.20, 1.70, 7.94, repro,
2006-11-05,0.19, -1.28, 14.09, 2.17, 1.67, 7.80, repro,
2006-11-06,-0.69, -0.68, 8.20, 2.07, 1.62, 7.51, repro,
2006-11-07,1.57, 0.34, 11.29, 2.23, 1.76, 8.05, repro,
2006-11-08,-1.60, -0.21, 11.67, 2.16, 1.70, 7.84, repro,
2006-11-09,-0.55, 0.69, 13.22, 2.23, 1.75, 8.06, repro,
2006-11-10,-0.78, -0.10, 13.88, 2.16, 1.63, 7.66, repro,
2006-11-11,-1.00, 0.27, 9.23, 2.19, 1.67, 7.74, repro,
2006-11-12,-1.92, -0.80, 13.80, 2.24, 1.76, 8.04, repro,
2006-11-13,0.22, -0.67, 13.31, 2.21, 1.73, 7.88, repro,
2006-11-14,0.94, -0.58, 11.57, 2.08, 1.63, 7.53, repro,
2006-11-15,0.29, -1.07, 4.45, 2.05, 1.60, 7.39, repro,
2006-11-16,-1.01, -0.99, 13.59, 2.06, 1.60, 7.36, repro,
2006-11-17,-0.53, -1.01, 9.91, 2.05, 1.60, 7.35, repro,
2006-11-18,0.49, -0.42, 1.22, 2.05, 1.62, 7.37, repro,
2006-11-19,-1.38, -0.99, 14.87, 2.04, 1.62, 7.40, repro,
2006-11-20,0.96, -0.40, 4.91, 2.09, 1.66, 7.50, repro,
2006-11-21,2.19, -0.44, 1.92, 2.07, 1.61, 7.43, repro,
2006-11-22,-0.10, -1.48, 8.92, 2.05, 1.60, 7.33, repro,
2006-11-23,-0.40, 0.27, 2.63, 2.13, 1.73, 7.85, repro,
2006-11-24,-0.45, -0.82, 6.35, 2.17, 1.75, 8.03, repro,
2006-11-25,-0.23, -1.39, 6.15, 2.08, 1.63, 7.45, repro,
2006-11-26,1.05, 3.16, 10.64, 2.09, 1.63, 7.47, repro,
2006-11-27,-1.87, 0.43, 0.65, 2.09, 1.62, 7.40, repro,
2006-11-28,-3.92, 0.06, 8.63, 2.10, 1.68, 7.55, repro,
2006-11-29,-2.41, -0.25, 8.97, 2.07, 1.67, 7.61, repro,
2006-11-30,0.29, 0.38, -0.21, 2.04, 1.61, 7.36, repro,
2006-12-01,-0.98, -0.32, 2.55, 2.05, 1.62, 7.38, repro,
2006-12-02,0.35, -0.30, 3.92, 2.06, 1.62, 7.42, repro,
2006-12-03,0.41, -0.02, 2.86, 2.06, 1.63, 7.45, repro,
2006-12-04,-0.32, -0.34, -2.40, 2.10, 1.66, 7.58, repro,
2006-12-05,0.91, 0.45, 1.34, 2.06, 1.68, 7.48, repro,
2006-12-06,-0.12, -0.41, 0.85, 2.10, 1.75, 7.68, repro,
2006-12-07,-0.17, -1.42, 7.69, 2.08, 1.69, 7.55, repro,
2006-12-08,0.99, -0.68, 0.53, 2.10, 1.71, 7.66, repro,
2006-12-09,0.75, -3.16, 10.34, 2.14, 1.72, 7.76, repro,
2006-12-10,-0.31, -0.29, 9.32, 2.12, 1.73, 7.71, repro,
2006-12-11,-0.92, -1.04, 6.70, 2.05, 1.64, 7.44, repro,
2006-12-12,-0.18, -0.11, 3.56, 2.13, 1.71, 7.64, repro,
2006-12-13,-1.12, 0.16, 0.41, 2.07, 1.68, 7.65, repro,
2006-12-14,0.17, 0.64, 0.12, 2.09, 1.71, 7.68, repro,
2006-12-15,0.28, -2.69, 6.01, 2.11, 1.74, 7.71, repro,
2006-12-16,-0.05, -1.91, 6.67, 2.15, 1.77, 7.75, repro,
2006-12-17,-0.28, -2.21, -0.48, 2.10, 1.73, 7.72, repro,
2006-12-18,0.29, -0.56, -1.12, 2.20, 1.87, 8.20, repro,
2006-12-19,-0.60, -1.12, 6.00, 2.15, 1.85, 8.13, repro,
2006-12-20,0.24, -0.78, -0.64, 2.15, 1.81, 7.76, repro,
2006-12-21,1.81, 0.07, -11.43, 2.06, 1.76, 7.67, repro,
2006-12-22,-0.98, -1.56, 4.85, 2.20, 1.90, 8.28, repro,
2006-12-23,0.28, 0.48, -0.06, 2.15, 1.77, 8.02, repro,
2006-12-24,-2.39, -2.24, 1.18, 2.08, 1.67, 7.61, repro,
2006-12-25,-0.88, -3.24, 6.04, 2.11, 1.77, 7.75, repro,
2006-12-26,2.22, -1.29, 10.15, 2.10, 1.75, 7.82, repro,
2006-12-27,2.24, -0.51, 4.20, 2.18, 1.80, 8.11, repro,
2006-12-28,-0.76, -1.80, 3.67, 2.23, 1.93, 8.50, repro,
2006-12-29,-1.01, -1.15, -14.95, 2.09, 1.71, 7.76, repro,
2006-12-30,-0.16, -1.24, -1.20, 2.12, 1.74, 7.79, repro,
2006-12-31,1.21, -1.66, -4.44, 2.22, 1.85, 8.10, repro,
2007-01-01,0.55, -1.38, -5.91, 2.22, 1.84, 8.10, repro,
2007-01-02,-0.38, -0.34, 10.30, 2.21, 1.92, 8.36, repro,
2007-01-03,-0.80, -0.98, 4.25, 2.07, 1.72, 7.73, repro,
2007-01-04,-1.78, -1.78, 6.60, 2.04, 1.66, 7.49, repro,
2007-01-05,-1.27, -1.52, 1.71, 2.07, 1.73, 7.71, repro,
2007-01-06,-2.78, -1.13, 0.03, 2.07, 1.71, 7.63, repro,
2007-01-07,0.23, -0.19, -2.13, 2.12, 1.72, 7.69, repro,
2007-01-08,-0.65, -1.09, -4.81, 2.15, 1.76, 7.86, repro,
2007-01-09,-0.27, -0.36, -3.69, 2.12, 1.71, 7.64, repro,
2007-01-10,-0.68, -0.74, 1.89, 2.12, 1.68, 7.56, repro,
2007-01-11,-0.20, -1.32, -3.15, 2.13, 1.65, 7.55, repro,
2007-01-12,-1.39, -2.60, 0.36, 2.03, 1.62, 7.33, repro,
2007-01-13,0.74, -0.13, -6.11, 2.00, 1.60, 7.21, repro,
2007-01-14,0.59, -0.62, -8.16, 2.00, 1.58, 7.13, repro,
2007-01-15,0.25, -0.75, -5.66, 2.01, 1.58, 7.17, repro,
2007-01-16,0.62, -0.35, -6.55, 2.05, 1.60, 7.26, repro,
2007-01-17,-1.71, -3.33, -1.05, 2.05, 1.64, 7.42, repro,
2007-01-18,-1.32, -3.45, -0.80, 2.10, 1.69, 7.63, repro,
2007-01-19,0.56, -0.29, -3.99, 2.11, 1.66, 7.76, repro,
2007-01-20,-0.35, 0.26, 2.97, 2.11, 1.67, 7.73, repro,
2007-01-21,-3.66, -0.53, 3.01, 2.00, 1.59, 7.17, repro,
2007-01-22,0.56, -0.22, -1.51, 2.00, 1.59, 7.11, repro,
2007-01-23,-0.21, -0.37, 0.24, 2.02, 1.59, 7.15, repro,
2007-01-24,-0.86, -0.03, -3.27, 2.01, 1.58, 7.17, repro,
2007-01-25,0.37, 0.02, -6.94, 2.05, 1.63, 7.29, repro,
2007-01-26,-0.56, 0.03, -2.37, 2.05, 1.63, 7.34, repro,
2007-01-27,-0.22, -0.46, 0.67, 2.00, 1.58, 7.09, repro,
2007-01-28,1.06, 0.14, -2.71, 1.99, 1.57, 7.01, repro,
2007-01-29,0.45, 0.42, -7.96, 2.01, 1.58, 7.10, repro,
2007-01-30,-0.37, 0.46, 1.00, 2.00, 1.58, 7.11, repro,
2007-01-31,-1.31, 0.01, 5.94, 1.99, 1.57, 7.05, repro,
2007-02-01,-0.80, 0.85, 5.82, 2.10, 1.67, 7.43, repro,
2007-02-02,-0.02, 0.09, 5.01, 2.05, 1.60, 7.25, repro,
2007-02-03,0.61, 0.28, -2.40, 2.06, 1.61, 7.35, repro,
2007-02-04,-0.54, 1.21, -0.29, 2.01, 1.59, 7.14, repro,
2007-02-05,-1.41, 0.75, -0.70, 2.01, 1.59, 7.18, repro,
2007-02-06,-1.48, 1.12, 0.60, 2.06, 1.60, 7.25, repro,
2007-02-07,0.48, -0.90, 2.64, 2.02, 1.58, 7.12, repro,
2007-02-08,1.48, 0.27, -0.34, 2.16, 1.69, 7.56, repro,
2007-02-09,2.33, -0.10, -6.97, 2.04, 1.64, 7.32, repro,
2007-02-10,-0.55, 0.24, -0.32, 2.00, 1.59, 7.13, repro,
2007-02-11,2.35, 0.61, 2.86, 2.03, 1.61, 7.22, repro,
2007-02-12,-1.15, -1.22, -4.71, 2.03, 1.64, 7.26, repro,
2007-02-13,-0.41, 0.64, -4.18, 2.01, 1.59, 7.10, repro,
2007-02-14,-0.61, 0.89, -6.97, 1.99, 1.58, 7.08, repro,
2007-02-15,-0.87, 0.43, -3.00, 2.02, 1.59, 7.18, repro,
2007-02-16,0.05, 0.57, -1.35, 2.01, 1.59, 7.16, repro,
2007-02-17,-0.82, 0.85, 4.30, 2.05, 1.63, 7.23, repro,
2007-02-18,-2.25, 0.44, 4.58, 2.02, 1.61, 7.22, repro,
2007-02-19,-1.33, 0.84, 12.13, 2.07, 1.67, 7.53, repro,
2007-02-20,-2.15, -0.10, 6.44, 1.97, 1.58, 7.06, repro,
2007-02-21,-4.06, 4.88, 4.10, 2.02, 1.60, 7.21, repro,
2007-02-22,-7.40, 2.47, -10.28, 2.03, 1.61, 7.25, repro,
2007-02-23,-0.80, -1.00, -0.66, 2.24, 1.71, 7.71, repro,
2007-02-24,-0.59, 0.67, 6.86, 2.02, 1.61, 7.27, repro,
2007-02-25,-1.32, -0.99, 1.93, 1.99, 1.58, 7.09, repro,
2007-02-26,-1.71, -1.52, 2.68, 2.02, 1.62, 7.27, repro,
2007-02-27,-1.19, -2.02, 2.63, 2.03, 1.64, 7.29, repro,
2007-02-28,-1.78, -0.23, -1.16, 2.09, 1.66, 7.42, repro,
2007-03-01,-1.76, -0.79, -2.42, 2.11, 1.71, 7.60, repro,
2007-03-02,-4.13, 0.20, -4.02, 2.10, 1.71, 7.67, repro,
2007-03-03,-0.16, -1.36, -15.18, 2.03, 1.65, 7.31, repro,
2007-03-04,-0.74, -0.99, -1.65, 2.03, 1.64, 7.35, repro,
2007-03-05,-1.65, -1.13, -4.38, 2.03, 1.63, 7.25, repro,
2007-03-06,-2.11, -1.55, -1.45, 2.04, 1.64, 7.32, repro,
2007-03-07,-1.97, -0.22, 0.30, 2.04, 1.63, 7.32, repro,
2007-03-08,-1.77, -0.58, 4.16, 2.02, 1.62, 7.25, repro,
2007-03-09,-1.35, -0.98, 7.70, 2.04, 1.63, 7.30, repro,
2007-03-10,-2.13, -1.00, -1.05, 2.11, 1.66, 7.51, repro,
2007-03-11,-1.40, -0.26, -3.10, 2.05, 1.63, 7.33, repro,
2007-03-12,-1.44, -1.02, 4.08, 2.10, 1.67, 7.45, repro,
2007-03-13,-2.33, -0.80, 2.35, 2.03, 1.58, 7.14, repro,
2007-03-14,-2.05, 0.70, 2.88, 2.02, 1.62, 7.21, repro,
2007-03-15,-2.44, 0.19, 1.73, 2.07, 1.64, 7.33, repro,
2007-03-16,-2.47, -1.04, 6.92, 2.04, 1.60, 7.20, repro,
2007-03-17,-3.27, -0.53, 6.08, 2.02, 1.57, 7.07, repro,
2007-03-18,-1.17, 0.59, 10.07, 2.03, 1.57, 7.10, repro,
2007-03-19,-1.21, 0.50, 4.52, 2.05, 1.60, 7.18, repro,
2007-03-20,-2.24, 0.83, 8.99, 2.09, 1.60, 7.20, repro,
2007-03-21,-3.57, -1.35, 13.24, 2.10, 1.64, 7.36, repro,
2007-03-22,-2.04, -2.17, 10.85, 2.02, 1.57, 7.11, repro,
2007-03-23,-1.37, -2.08, 3.84, 2.01, 1.56, 6.99, repro,
2007-03-24,-2.48, 0.43, 7.71, 2.02, 1.56, 7.05, repro,
2007-03-25,-2.67, -0.63, 9.92, 2.03, 1.58, 7.15, repro,
2007-03-26,-2.65, -0.76, 5.51, 2.05, 1.61, 7.23, repro,
2007-03-27,-2.33, -0.04, -0.59, 2.06, 1.59, 7.17, repro,
2007-03-28,-4.79, 0.14, 8.08, 2.07, 1.59, 7.19, repro,
2007-03-29,-2.36, -0.24, 0.95, 2.02, 1.58, 7.14, repro,
2007-03-30,-1.92, -0.34, 1.51, 2.07, 1.62, 7.22, repro,
2007-03-31,-1.47, -0.33, 4.58, 2.00, 1.57, 7.02, repro,
2007-04-01,-2.43, -0.98, 10.55, 2.01, 1.57, 7.03, repro,
2007-04-02,-3.07, -0.19, 6.34, 2.00, 1.57, 7.02, repro,
2007-04-03,-2.78, -0.59, 2.38, 2.11, 1.66, 7.42, repro,
2007-04-04,-1.44, -1.01, -4.59, 2.13, 1.72, 7.59, repro,
2007-04-05,-1.62, -0.04, 0.77, 2.14, 1.72, 7.54, repro,
2007-04-06,-2.30, 0.32, 1.26, 2.08, 1.64, 7.26, repro,
2007-04-07,-1.15, -1.66, 7.63, 2.05, 1.61, 7.20, repro,
2007-04-08,-1.57, -0.51, 3.95, 2.01, 1.56, 6.99, repro,
2007-04-09,-1.95, -1.14, 6.61, 2.03, 1.58, 7.15, repro,
2007-04-10,-1.39, -1.76, 10.04, 2.09, 1.61, 7.34, repro,
2007-04-11,-1.75, -0.14, 1.15, 2.03, 1.57, 7.08, repro,
2007-04-12,-3.09, -1.64, 10.00, 2.02, 1.57, 7.04, repro,
2007-04-13,-3.02, -0.89, 2.88, 2.03, 1.56, 6.99, repro,
2007-04-14,-3.75, -2.60, 11.20, 2.10, 1.60, 7.31, repro,
2007-04-15,-3.14, -1.36, 9.62, 2.04, 1.58, 7.18, repro,
2007-04-16,-2.25, 0.50, 4.35, 2.03, 1.56, 7.07, repro,
2007-04-17,-2.41, 0.15, 1.42, 2.02, 1.57, 7.10, repro,
2007-04-18,-1.20, -0.80, -1.59, 2.02, 1.57, 7.05, repro,
2007-04-19,-1.79, -0.54, 2.68, 2.03, 1.56, 7.04, repro,
2007-04-20,-1.36, -2.46, 3.13, 2.02, 1.56, 7.05, repro,
2007-04-21,-0.12, -0.57, 4.71, 2.04, 1.57, 7.16, repro,
2007-04-22,-2.10, -2.02, 7.49, 2.04, 1.56, 7.09, repro,
2007-04-23,-1.05, -1.51, 2.43, 2.05, 1.59, 7.16, repro,
2007-04-24,-1.71, -0.73, 1.37, 2.08, 1.58, 7.20, repro,
2007-04-25,-0.82, -0.42, 1.17, 2.07, 1.58, 7.23, repro,
2007-04-26,-2.06, -0.51, 1.30, 2.06, 1.57, 7.16, repro,
2007-04-27,-1.71, -1.47, 5.85, 2.03, 1.56, 7.13, repro,
2007-04-28,-1.60, -0.77, 6.69, 2.03, 1.57, 7.17, repro,
2007-04-29,-2.40, -1.49, -0.86, 2.02, 1.56, 7.08, repro,
2007-04-30,-0.58, -1.42, 3.17, 2.04, 1.55, 7.07, repro,
2007-05-01,-2.68, -1.77, 2.74, 2.05, 1.57, 7.19, repro,
2007-05-02,-0.45, -0.80, -3.37, 2.13, 1.58, 7.51, repro,
2007-05-03,-4.60, -2.13, 9.68, 2.11, 1.58, 7.37, repro,
2007-05-04,-1.81, -2.10, 5.40, 2.02, 1.55, 7.05, repro,
2007-05-05,-3.02, -0.36, 3.39, 2.08, 1.61, 7.36, repro,
2007-05-06,-1.12, -2.18, 1.15, 2.06, 1.56, 7.16, repro,
2007-05-07,-4.25, -2.22, 5.20, 2.07, 1.60, 7.33, repro,
2007-05-09,-1.99, -1.98, 6.15, 2.06, 1.56, 7.20, repro,
2007-05-10,-1.42, -1.39, -0.99, 2.13, 1.63, 7.52, repro,
2007-05-11,-0.67, -0.69, -7.08, 2.15, 1.63, 7.51, repro,
2007-05-12,-1.96, -0.63, 5.98, 2.13, 1.58, 7.32, repro,
2007-05-13,-1.40, -0.91, 1.62, 2.11, 1.60, 7.35, repro,
2007-05-14,-0.88, -1.65, -0.12, 2.09, 1.59, 7.27, repro,
2007-05-15,-1.25, -1.59, 0.72, 2.07, 1.57, 7.27, repro,
2007-05-16,-1.37, -0.93, -2.04, 2.11, 1.61, 7.36, repro,
2007-05-17,-1.32, -1.06, 2.60, 2.08, 1.60, 7.32, repro,
2007-05-18,-1.12, -0.67, 4.24, 2.17, 1.68, 7.68, repro,
2007-05-19,-1.50, -1.29, 8.86, 2.12, 1.62, 7.43, repro,
2007-05-20,0.61, -1.19, -1.04, 2.18, 1.68, 7.65, repro,
2007-05-21,-0.80, -0.08, 2.09, 2.11, 1.61, 7.41, repro,
2007-05-22,-0.60, -1.24, 6.64, 2.12, 1.60, 7.35, repro,
2007-05-23,-0.99, -1.45, 2.41, 2.10, 1.59, 7.34, repro,
2007-05-24,-1.01, -1.11, 3.68, 2.15, 1.64, 7.43, repro,
2007-05-25,-1.43, -0.46, 1.02, 2.08, 1.58, 7.28, repro,
2007-05-26,-0.99, 0.33, -0.04, 2.11, 1.62, 7.40, repro,
2007-05-27,-2.45, -0.39, 3.67, 2.15, 1.63, 7.51, repro,
2007-05-28,-0.89, -1.81, 1.86, 2.14, 1.64, 7.45, repro,
2007-05-29,-1.17, -1.74, 1.60, 2.09, 1.61, 7.23, repro,
2007-05-30,-0.86, -1.56, 7.07, 2.15, 1.62, 7.46, repro,
2007-05-31,-1.68, -0.86, 3.08, 2.12, 1.61, 7.44, repro,
2007-06-01,-1.85, -1.45, 9.36, 2.08, 1.58, 7.28, repro,
2007-06-02,-1.23, -2.31, 5.10, 2.14, 1.63, 7.48, repro,
2007-06-03,-1.12, -1.63, 1.28, 2.06, 1.57, 7.18, repro,
2007-06-04,-2.83, -0.11, 10.58, 2.07, 1.57, 7.23, repro,
2007-06-05,-1.93, 0.20, 3.93, 2.18, 1.66, 7.65, repro,
2007-06-06,-0.27, -1.45, 10.91, 2.17, 1.68, 7.60, repro,
2007-06-07,-0.50, -1.22, 7.25, 2.14, 1.65, 7.42, repro,
2007-06-08,-1.60, -1.66, 3.29, 2.05, 1.56, 7.12, repro,
2007-06-09,-1.81, -1.21, 2.47, 2.07, 1.60, 7.28, repro,
2007-06-10,-0.89, -2.30, 2.67, 2.08, 1.58, 7.24, repro,
2007-06-11,-0.92, -1.16, 1.20, 2.12, 1.66, 7.45, repro,
2007-06-12,-0.20, -0.27, 3.32, 2.10, 1.66, 7.40, repro,
2007-06-13,0.29, -0.78, -3.18, 2.11, 1.61, 7.36, repro,
2007-06-14,-1.09, -1.71, -7.01, 2.16, 1.66, 7.48, repro,
2007-06-15,-1.87, -1.08, 3.64, 2.11, 1.60, 7.32, repro,
2007-06-16,-1.24, -0.64, -0.59, 2.10, 1.63, 7.34, repro,
2007-06-17,0.05, -0.97, 2.13, 2.12, 1.59, 7.27, repro,
2007-06-18,-0.05, 0.04, 4.36, 2.12, 1.60, 7.33, repro,
2007-06-19,-1.03, -1.12, 0.40, 2.09, 1.61, 7.31, repro,
2007-06-20,-1.26, 0.12, 1.67, 2.05, 1.57, 7.14, repro,
2007-06-21,-1.64, -0.83, 4.33, 2.06, 1.57, 7.15, repro,
2007-06-22,-1.26, -0.55, 4.14, 2.11, 1.60, 7.40, repro,
2007-06-23,-0.98, -0.82, -2.48, 2.16, 1.66, 7.55, repro,
2007-06-24,-2.31, -0.14, 3.40, 2.09, 1.60, 7.38, repro,
2007-06-25,-0.51, -0.33, 2.08, 2.05, 1.57, 7.16, repro,
2007-06-26,-0.08, -1.01, -2.25, 2.06, 1.57, 7.20, repro,
2007-06-27,0.15, -0.09, -1.68, 2.13, 1.68, 7.54, repro,
2007-06-28,-0.72, 0.84, -3.45, 2.08, 1.58, 7.30, repro,
2007-06-29,-1.34, 1.35, 3.06, 2.10, 1.61, 7.39, repro,
2007-06-30,-1.61, -1.10, 1.70, 2.06, 1.57, 7.21, repro,
2007-07-01,0.03, -2.39, 5.57, 2.06, 1.57, 7.20, repro,
2007-07-02,-1.56, 0.60, 2.70, 2.06, 1.56, 7.16, repro,
2007-07-03,-0.31, 0.24, 1.50, 2.12, 1.65, 7.46, repro,
2007-07-04,-0.24, 0.28, 1.29, 2.11, 1.61, 7.35, repro,
2007-07-05,-0.82, -2.25, 1.53, 2.10, 1.61, 7.32, repro,
2007-07-06,0.09, -0.75, 6.44, 2.05, 1.56, 7.10, repro,
2007-07-07,-2.12, -1.16, 10.39, 2.06, 1.57, 7.19, repro,
2007-07-08,-2.46, 0.73, 5.32, 2.11, 1.64, 7.39, repro,
2007-07-09,-1.76, -1.99, 6.41, 2.12, 1.63, 7.40, repro,
2007-07-10,-0.82, -1.18, 7.40, 2.07, 1.58, 7.25, repro,
2007-07-11,-1.37, -0.58, 5.64, 2.06, 1.57, 7.16, repro,
2007-07-12,-2.10, -0.73, 2.93, 2.05, 1.57, 7.12, repro,
2007-07-13,-1.20, -0.02, 0.10, 2.11, 1.67, 7.49, repro,